Home > Weather > Palma > Past weeks

Flag for Spain Weather for the Past 2 Weeks in Palma, Majorca, Spain

Now
57 °F

Passing clouds.


Feels Like: 57 °F
Forecast: 48 / 61 °F
Wind: 3 mph from Southeast

Location: Palma De Mallorca / Son San Juan

Current Time: Apr 30, 2016 at 5:48:45 AM

Latest Report: Apr 30, 2016 at 4:30 AM


Visibility: N/A

Pressure: 30.01 "Hg

Humidity: 72%

Dew Point: 48 °F

Location of PalmaLocation

Historic Weather in Palma — Graph

°F

Palma Temperature Yesterday

Maximum temperature yesterday: 68 °F (at 1:00 PM)
Minimum temperature yesterday: 50 °F (at 6:00 AM)
Average temperature yesterday: 60 °F

High & Low Weather Summary for the Past Weeks

 TemperatureHumidityPressure
High73 °F (Apr 20, 12:30 PM)100% (Apr 15, 4:30 AM)30.15 "Hg (Apr 15, 4:30 AM)
Low45 °F (Apr 15, 6:00 AM)38% (Apr 15, 11:30 AM)29.83 "Hg (Apr 15, 7:00 PM)
Average62 °F75%29.98 "Hg
* Reported Apr 15 4:00 AM — Apr 30 4:30 AM, Palma, Weather by CustomWeather, © 2016

Note: Actual official high and low records may vary slightly from our data, if they occured in-between our weather recording intervals... More about our weather records

Advertising

Palma Weather History for the Previous 24 Hours

Scroll right to see more
 ConditionsComfort  
Time TempWeatherWind HumidityBarometerVisibility
4:30 AM
Sat, Apr 30
57 °FPassing clouds.3 mph72%30.01 "HgN/A
3:30 AM57 °FPassing clouds.No wind72%30.04 "HgN/A
3:00 AM57 °FPassing clouds.1 mph72%30.04 "HgN/A
2:30 AM55 °FPassing clouds.1 mph77%30.04 "HgN/A
1:30 AM57 °FPassing clouds.5 mph77%30.04 "HgN/A
1:00 AM59 °FPassing clouds.2 mph72%30.07 "HgN/A
12:30 AM57 °FPassing clouds.3 mph77%30.07 "HgN/A
12:00 AM59 °FPassing clouds.2 mph72%30.07 "HgN/A
11:30 PM
Fri, Apr 29
59 °FPassing clouds.5 mph72%30.07 "HgN/A
11:00 PM59 °FPassing clouds.3 mph72%30.09 "HgN/A
10:30 PM59 °FPassing clouds.3 mph68%30.09 "HgN/A
10:00 PM61 °FPassing clouds.5 mph63%30.09 "HgN/A
9:30 PM61 °FPassing clouds.8 mph63%30.07 "HgN/A
9:00 PM61 °FPassing clouds.6 mph59%30.07 "HgN/A
8:30 PM63 °FPassing clouds.6 mph56%30.07 "HgN/A
8:00 PM63 °FPassing clouds.7 mph56%30.07 "HgN/A
7:30 PM63 °FPassing clouds.7 mph59%30.07 "HgN/A
7:00 PM64 °FPassing clouds.9 mph56%30.07 "HgN/A
6:30 PM64 °FPassing clouds.9 mph52%30.07 "HgN/A
6:00 PM64 °FScattered clouds.12 mph60%30.07 "HgN/A
5:30 PM66 °FScattered clouds.12 mph52%30.07 "HgN/A
5:00 PM66 °FScattered clouds.13 mph56%30.07 "HgN/A
4:30 PM68 °FScattered clouds.12 mph53%30.07 "HgN/A
4:00 PM68 °FScattered clouds.8 mph53%30.07 "HgN/A
3:30 PM68 °FScattered clouds.3 mph53%30.09 "HgN/A
3:00 PM68 °FPassing clouds.9 mph46%30.09 "HgN/A
2:30 PM68 °FPassing clouds.8 mph46%30.09 "HgN/A
2:00 PM66 °FPassing clouds.7 mph49%30.09 "HgN/A
1:30 PM68 °FPassing clouds.8 mph49%30.09 "HgN/A
1:00 PM68 °FPassing clouds.9 mph46%30.09 "HgN/A
12:30 PM66 °FPassing clouds.9 mph46%30.09 "HgN/A
12:00 PM66 °FPassing clouds.10 mph49%30.09 "HgN/A
11:30 AM64 °FPassing clouds.9 mph56%30.09 "HgN/A
11:00 AM64 °FPassing clouds.10 mph52%30.09 "HgN/A
10:00 AM63 °FPassing clouds.14 mph59%30.09 "HgN/A
9:30 AM61 °FPassing clouds.13 mph63%30.09 "HgN/A
9:00 AM61 °FPassing clouds.12 mph63%30.09 "HgN/A
8:30 AM57 °FPassing clouds.8 mph67%30.09 "HgN/A
8:00 AM54 °FPassing clouds.3 mph72%30.07 "HgN/A
7:30 AM50 °FPassing clouds.2 mph82%30.07 "HgN/A
7:00 AM50 °FPassing clouds.No wind76%30.07 "HgN/A
6:30 AM50 °FPassing clouds.No wind82%30.04 "HgN/A
6:00 AM50 °FPassing clouds.1 mph82%30.04 "HgN/A
5:30 AM52 °FPassing clouds.2 mph77%30.04 "HgN/A
Weather by CustomWeather, © 2016

See weather overviewHow to use our weather pages